Location: Cosy Dell
(34.2789°N, 117.4537°W)
Time: 19:35:35
(UTC+00:00)

Cosmos 1140 Rocket - Pass Details

Date: 14 July 2020
Orbit: 744 x 768 km, 74.1° (Epoch: 13 August)

Event Time Altitude Azimuth Distance (km) Brightness Sun altitude
Exits shadow 09:12:18 48° 48° (NE) 989 4.3 -31.3°
Drops below altitude 10° 09:16:13 10° 24° (NNE) 2,301 6.9 -31.0°
Sets 09:18:37 0° 21° (NNE) 3,233 7.9 -30.8°
